Regional Weather Roundup
Issued by NWS New Orleans/Baton Rouge, LA

Home | Current Version | Previous Version | Text Only | Print | Product List | Glossary Off
Versions: 1 2 3 4 5 6 7 8 9 10 11 12 13 14 15 16 17 18 19 20 21 22 23 24 25 26 27 28 29 30 31 32 33 34 35 36 37 38 39 40 41 42 43 44 45 46 47 48 49 50

501
ASUS44 KLIX 251601
RWRLIX
NEW ORLEANS REGIONAL WEATHER ROUNDUP
NATIONAL WEATHER SERVICE NEW ORLEANS LA
1000 AM CST TUE NOV 25 2014

NOTE: "FAIR" INDICATES FEW OR NO CLOUDS BELOW 12,000 FEET WITH NO
      SIGNIFICANT WEATHER AND/OR OBSTRUCTIONS TO VISIBILITY.
      SKY/WX - SKY CONDITION AND SIGNIFICANT WEATHER.
      TMP - AIR TEMPERATURE.     DP    - DEWPOINT TEMPERATURE.
      RH  - RELATIVE HUMIDITY.   PRES  - PRESSURE.
      HI  - HEAT INDEX.          WCI   - WIND CHILL INDEX.

*  THESE STATIONS ARE NOT NWS OR FAA STATIONS AND ARE NOT UNDER
   NWS QUALITY CONTROL.

LAZ038-040-048-061>063-065>067-069-251700-
SOUTHEAST LOUISIANA

CITY           SKY/WX    TMP DP  RH WIND       PRES   REMARKS
N.O. AUDUBON     N/A     56  37  48 MISG        N/A
N.O. INTL ARPT CLOUDY    55  36  48 N12       30.21R
N.O. LAKEFRONT CLOUDY    56  37  49 N15       30.20R
N.O. DOWNTOWN*   N/A     55  34  44 N12G17    30.20R
SLIDELL        CLOUDY    56  35  45 N7        30.18R
BATON ROUGE    CLOUDY    53  30  41 CALM      30.23R
BOOTHVILLE     PTSUNNY   59  42  53 N12G26    30.13S
BELLE CHASSE   CLOUDY    58  33  39 N13       30.18R
BOGALUSA*        N/A     55  36  49 N5        30.19S
NEW ROADS*     NOT AVBL
GONZALES*      NOT AVBL
HAMMOND*       NOT AVBL
HOUMA*         CLOUDY    55  36  47 N115      30.19R
PORT FOURCHON* SUNNY     59  39  47 N18G25    30.20R

$$

MSZ070-080>082-251700-
SOUTHERN MISSISSIPPI

CITY           SKY/WX    TMP DP  RH WIND       PRES   REMARKS
MCCOMB         PTSUNNY   54  28  36 N10       30.20S
GULFPORT       CLOUDY    56  35  45 N9G20     30.15S
BILOXI         CLOUDY    57  35  44 NE12G20   30.14F
PASCAGOULA     PTSUNNY   59  35  40 N16       30.13F
STENNIS ARPT*  SUNNY     55  34  44 N9        30.17S

$$

COASTAL OBSERVATIONS
LAKE AND NEARSHORE STATIONS

STATION/POSITION TIME  TEMP    WIND        PRES    WAVE
                       AIR SEA DIR/SP/G            HT/PER
                 (UTC) (F)     (DEG/KT/KT) (MB)    (FT/S)
PASCAGOULA       1500   56      10/ 11/ 14 1020.0
WAVELAND YACHT   1500   53      20/ 11/ 13 1020.6
GRAND ISLE       1500   58 63   30/ 18/ 22 1021.2
SOUTHWEST PASS   1500   61                 1019.7
NEW CANAL        1500   54 56   30/ 15/ 17 1022.3
SHELL BEACH      1500   54 53   20/ 15/ 20 1021.1

OFFSHORE STATIONS

STATION/POSITION TIME  TEMP    WIND        PRES    WAVE
                       AIR SEA DIR/SP/G            HT/PER
                 (UTC) (F)     (DEG/KT/KT) (MB)    (FT/S)
64 S DAUPHIN ISL 1530   61 71   40/ 25/ 31 1019.1    9/ 7

$$




USA.gov is the U.S. government's official web portal to all federal, state and local government web resources and services.